Preston, Minnesota, United States (55965)
Lat: 43.67N, Lon: 92.08W
Wx Zone: MNZ095
Local Info
Past Weather Observations for Today

NOTE: This archive is for the closest National Weather Service station to Preston. Information may differ from the station used for current weather conditions.

Click here for Long-term Archive

Time Weather Temperature Dewpoint Humidity Pressure Winds Precip Visibility
07:51
Overcast
61°F / 16°C 61°F / 16°C 100% 30.21 in
(1023 mb)
NNW 4.6 mph
(NNW 7 kph)
- 10SM
07:30
Overcast
59°F / 15°C 59°F / 15°C 100% 30.21 in
(1023 mb)
NNW 5.8 mph
(NNW 9 kph)
- 10SM
07:11
Overcast
59°F / 15°C 59°F / 15°C 100% 30.21 in
(1023 mb)
NW 6.9 mph
(NW 11 kph)
- 10SM
06:51
Overcast
59°F / 15°C 59°F / 15°C 100% 30.18 in
(1022 mb)
NNW 6.9 mph
(NNW 11 kph)
- 10SM
06:30
Overcast
57°F / 14°C 57°F / 14°C 100% 30.18 in
(1022 mb)
NNW 4.6 mph
(NNW 7 kph)
- 10SM
06:11
Overcast
57°F / 14°C 57°F / 14°C 100% 30.18 in
(1022 mb)
Calm - 10SM
05:50
Overcast
55°F / 13°C 57°F / 14°C N/A 30.18 in
(1022 mb)
Calm - 10SM
05:31
Overcast
55°F / 13°C 55°F / 13°C 100% 30.18 in
(1022 mb)
Calm - 10SM
05:11
Overcast
55°F / 13°C 55°F / 13°C 100% 30.18 in
(1022 mb)
N 3.5 mph
(N 6 kph)
- 10SM
04:50
Overcast
55°F / 13°C 55°F / 13°C 100% 30.18 in
(1022 mb)
Calm - 10SM
04:31
Mostly Cloudy
55°F / 13°C 55°F / 13°C 100% 30.18 in
(1022 mb)
NNW 4.6 mph
(NNW 7 kph)
- 10SM
04:11
Mostly Cloudy
55°F / 13°C 55°F / 13°C 100% 30.15 in
(1021 mb)
Calm - 10SM
03:51
Overcast
55°F / 13°C 55°F / 13°C 100% 30.15 in
(1021 mb)
NNW 3.5 mph
(NNW 6 kph)
- 10SM
03:30
Overcast
55°F / 13°C 55°F / 13°C 100% 30.15 in
(1021 mb)
NW 4.6 mph
(NW 7 kph)
- 10SM
03:11
Mostly Cloudy
55°F / 13°C 55°F / 13°C 100% 30.15 in
(1021 mb)
NNW 4.6 mph
(NNW 7 kph)
- 10SM
02:51
Partly Cloudy
55°F / 13°C 55°F / 13°C 100% 30.15 in
(1021 mb)
NNW 4.6 mph
(NNW 7 kph)
- 10SM
02:31
Clear
55°F / 13°C 55°F / 13°C 100% 30.15 in
(1021 mb)
NNW 4.6 mph
(NNW 7 kph)
- 10SM
02:10
Partly Cloudy
55°F / 13°C 55°F / 13°C 100% 30.15 in
(1021 mb)
NNW 4.6 mph
(NNW 7 kph)
- 10SM
01:51
Overcast
55°F / 13°C 57°F / 14°C N/A 30.15 in
(1021 mb)
NNW 4.6 mph
(NNW 7 kph)
- 10SM
01:30
Overcast
55°F / 13°C 55°F / 13°C 100% 30.15 in
(1021 mb)
NNW 3.5 mph
(NNW 6 kph)
- 10SM
01:11
Mostly Cloudy
55°F / 13°C 55°F / 13°C 100% 30.15 in
(1021 mb)
N 3.5 mph
(N 6 kph)
- 10SM
00:50
Clear
55°F / 13°C 55°F / 13°C 100% 30.12 in
(1020 mb)
N 3.5 mph
(N 6 kph)
- 10SM
00:31
Clear
55°F / 13°C 55°F / 13°C 100% 30.12 in
(1020 mb)
N 3.5 mph
(N 6 kph)
- 10SM
00:11
Clear
55°F / 13°C 55°F / 13°C 100% 30.12 in
(1020 mb)
N 5.8 mph
(N 9 kph)
- 10SM
Time Weather Temperature Dewpoint Humidity Pressure Winds Precip Visibility


Weather for websites

WeatherForYou.com, LLC is not responsible for any damages or problems caused by this service. Current weather conditions are obtained from the closest station including government and personal stations which may have varying degrees of accuracy. Weather forecasts are derived from the NOAA NDFD. Like all things, this site belongs to Jesus Christ... He just trusts me to maintain it. If you have any questions or comments email webmaster@weatherforyou.com

Copyright © 2014, WeatherForYou.com LLC. All rights reserved.